Flag for Brazil Weather past 2 weeks in Eirunepé, Amazonas, Brazil

Now
72 °F

Passing clouds.


Feels Like: 65 °F
Forecast: 69 / 86 °F
Wind: No wind

Location: Leticia / Vasquez Cobo

Current Time: Jul 6, 2015 at 4:46:11 AM

Latest Report: Jul 6, 2015 at 4:00 AM


Visibility: N/A

Pressure: 29.91 "Hg

Humidity: 100%

Dew point: 72 °F

Location of EirunepéLocation

Historic Weather in Eirunepé — Graph

°F

Eirunepé temperature yesterday

Maximum temperature yesterday: 82 °F (at 1:00 PM)
Minimum temperature yesterday: 73 °F (at 4:00 AM)
Average temperature yesterday: 77 °F

Past Weeks' High & Low Weather Summary

 TemperatureHumidityPressure
High91 °F (Jul 3, 1:00 PM)100% (Jun 21, 2:00 AM)30.09 "Hg (Jun 21, 2:00 AM)
Low70 °F (Jun 27, 5:00 AM)59% (Jun 26, 1:00 PM)29.77 "Hg (Jul 3, 4:00 PM)
Average79 °F89%29.93 "Hg
* Reported Jun 21 2:00 AM — Jul 6 2:00 AM, Eirunepé, Weather by CustomWeather, © 2015

Note: Actual official high and low records may vary slightly from our data, if they occured in-between our weather recording intervals... More about our weather records

Advertising

Eirunepé weather history for previous 24 hours

 ConditionsComfort  
Time TempWeatherWind HumidityBarometerVisibility
2:00 AM
Mon, Jul 6
73 °FPassing clouds.No wind94%29.91 "HgN/A
1:00 AM73 °FPassing clouds.No wind94%29.92 "HgN/A
12:00 AM73 °FPartly cloudy.No wind100%29.93 "HgN/A
11:00 PM
Sun, Jul 5
73 °FPassing clouds.No wind100%29.93 "HgN/A
10:00 PM73 °FPassing clouds.No wind100%29.94 "HgN/A
8:00 PM73 °FPassing clouds.No wind100%29.93 "Hg5 mi
7:00 PM73 °FLight rain. Mostly cloudy.No wind100%29.90 "Hg5 mi
6:00 PM75 °FLight rain. Passing clouds.2 mph94%29.90 "Hg2 mi
5:00 PM79 °FDrizzle. Partly sunny.2 mph89%29.88 "Hg4 mi
4:00 PM81 °FBroken clouds.3 mph84%29.86 "HgN/A
3:00 PM81 °FBroken clouds.3 mph79%29.88 "HgN/A
2:00 PM82 °FPartly sunny.5 mph79%29.90 "HgN/A
1:00 PM82 °FBroken clouds.3 mph84%29.93 "HgN/A
12:00 PM81 °FPartly sunny.6 mph84%29.96 "HgN/A
11:00 AM79 °FPartly sunny.7 mph89%29.97 "HgN/A
10:00 AM79 °FPartly sunny.7 mph89%29.98 "HgN/A
9:00 AM77 °FPartly sunny.5 mph94%29.97 "HgN/A
8:00 AM75 °FPartly sunny.No wind100%29.96 "HgN/A
7:00 AM75 °FMore clouds than sun.No wind94%29.91 "HgN/A
6:00 AM73 °FPartly sunny.No wind100%29.91 "HgN/A
5:00 AM73 °FLight rain. Overcast.No wind100%29.90 "Hg4 mi
4:00 AM73 °FScattered showers. Overcast.No wind100%29.89 "Hg5 mi
Weather by CustomWeather, © 2015

See weather overviewHow to use our weather pages